User: anonymous   Login
Location: ???????
(55.4362°N, 38.1183°E)
Time: 20:56:40
(UTC+00:00)
Language:

COSMOS 2251 DEB - Orbit

View from above orbital plane
View from above orbital plane
View from above satellite
View from above satellite

Ground track
Ground track

The orbit data is extracted from the following two-line orbital elements,

1 34847U 93036ABR 22022.48624418  .00001665  00000-0  15402-3 0  9995
2 34847  74.0447  47.4262 0108487 122.5799 238.5915 14.91074181467389
Epoch (UTC): 22 January 2022 11:40:11
Eccentricity: 0.0108487
inclination: 74.0447°
perigee height: 519 km
apogee height: 670 km
right ascension of ascending node: 47.4262°
argument of perigee: 122.5799°
revolutions per day: 14.91074181
mean anomaly at epoch: 238.5915°
orbit number at epoch: 46738

The dashed part of the orbit path shows where the satellite is in the earth's shadow,  

DLR